Location: WWIN Observatory
(34.8953°N, 91.9583°W)
Time: 09:13:12
(UTC-05:00)

N. Korean satellite - Pass Details

Date: 25 March 2019
Orbit: 458 x 508 km, 97.2° (Epoch: 25 April)

Event Time Altitude Azimuth Distance (km) Brightness Sun altitude
Rises 06:18:25 0° 34° (NNE) 2,541 10.9 -10.3°
Reaches altitude 10° 06:21:13 10° 59° (ENE) 1,668 10.5 -9.7°
Maximum altitude 06:23:18 15° 94° (E) 1,405 10.2 -9.3°
Drops below altitude 10° 06:25:23 10° 130° (SE) 1,677 9.9 -8.9°
Sets 06:28:13 0° 154° (SSE) 2,564 10.5 -8.3°
